[[{"header":{"parameterUnit":"m.s-1","parameterCategory":1,"la1":30.2991,"la2":30.254,"lo1":-89.0895,"lo2":-89.0444,"dy":0.0017,"dx":0.0017,"nx":28,"ny":28,"refTime":"2023-10-14T09:00:00:Z","depth":0,"parameterNumber":2,"parameterNumberName":"U-component_of_WINDS"},"data":[0,0,0,0,0,0,0,0,0,0,0,0,0,0,0,0,0,0,0,0,0,0,0,0,0,0,0,0,0,0,0,0,0,0,0,0,0,0,0,0,0,0,0,0,0,0,0,0,0,0,0,0,0,0,0,0,0,0,0.8468,0.8467,0,0.8423,0.8423,0.8422,0.8371,0.8371,0.837,0.8369,0.8324,0.8324,0.8323,0,0,0,0,0,0,0,0,0,0,0,0,0,0.8508,0.8507,0.8468,0.8467,0.8467,0.8423,0.8423,0.8422,0.8372,0.8371,0.837,0.8369,0.8324,0.8324,0.8323,0,0,0,0,0,0,0,0,0,0,0,0,0,0.848,0.8507,0.8468,0.8436,0.8433,0.8424,0.8423,0.8422,0.8372,0.8371,0.8369,0.8368,0.8325,0.8324,0.8323,0.8342,0,0,0.8321,0.8321,0,0,0,0,0,0,0,0,0.8481,0.8478,0.8441,0.8438,0.8434,0.8402,0.842,0.8395,0.8372,0.8395,0.8369,0.8368,0.8351,0.8348,0.8342,0.834,0.8338,0.8321,0.832,0.832,0.832,0,0,0,0,0,0,0,0.8483,0.848,0.845,0.8441,0.8437,0.8424,0.8419,0.8415,0.838,0.8393,0.8389,0.8384,0.8349,0.8343,0.8341,0.8337,0.8321,0.832,0.832,0.832,0.8346,0.8347,0,0,0,0,0,0,0.849,0.8482,0.8451,0.8449,0.8456,0.8424,0.8418,0.8413,0.838,0.8374,0.8386,0.8382,0.8345,0.8342,0.8339,0.8358,0.832,0.8319,0.8319,0.8345,0.8346,0.8348,0,0,0,0,0,0,0.8491,0.8488,0.8453,0.8464,0.8459,0.8425,0.842,0.8413,0.8407,0.8374,0.8368,0.8386,0.8344,0.834,0.8341,0.8355,0.8319,0.8319,0.8344,0.8346,0.8347,0.8396,0,0,0,0,0,0,0.8492,0.8488,0.8495,0.8465,0.8458,0.8456,0.8421,0.8413,0.8406,0.8401,0.8373,0.8367,0.8343,0.8343,0.834,0.8354,0.8318,0.8342,0.8345,0.8347,0.8393,0.8399,0.8404,0,0,0,0,0,0.8494,0.8511,0.8496,0.8493,0.8466,0.8457,0.8454,0.8425,0.8408,0.8414,0.8393,0.8368,0.8354,0.8343,0.834,0.8354,0.8341,0.8344,0.8346,0.839,0.8398,0.8404,0,0,0,0,0,0,0.8545,0.8507,0.8489,0.8497,0.8481,0.8449,0.8456,0.8434,0.8423,0.8419,0.8383,0.8378,0.8383,0.8368,0.8356,0.8369,0.8344,0.8346,0.8378,0.8385,0.8391,0.8394,0.8317,0,0,0,0,0,0.8557,0.8552,0.8519,0.8529,0.8522,0.8491,0.8486,0.8465,0.8447,0.844,0.8418,0.8402,0.8393,0.8389,0.8379,0.8391,0.8383,0.8398,0.8404,0.8409,0.8411,0.8415,0.8421,0.8356,0.8356,0.8356,0,0,0.8581,0.856,0.856,0.8539,0.8524,0.852,0.8485,0.8483,0.848,0.8439,0.8439,0.8423,0.8401,0.8408,0.8409,0.8396,0.8427,0.8412,0.8416,0.8416,0.8418,0.8424,0.843,0.8358,0.8358,0.8357,0,0,0.8624,0.8608,0.8614,0.86,0.8577,0.8556,0.8558,0.8529,0.8516,0.8515,0.8484,0.848,0.8467,0.8453,0.8444,0.8481,0.8458,0.8479,0.8509,0.8513,0.8518,0.8522,0.8535,0.854,0.8481,0.8481,0.8482,0,0.8658,0.8651,0.862,0.8619,0.8611,0.8574,0.8579,0.8567,0.8543,0.8538,0.8523,0.8505,0.8488,0.849,0.8499,0.8493,0.8493,0.8482,0.852,0.8524,0.8528,0.8539,0.8544,0.8484,0.8484,0.8484,0.8483,0,0.8693,0.8689,0.8696,0.8673,0.8666,0.8669,0.8638,0.8634,0.8613,0.8594,0.8593,0.8571,0.8556,0.8555,0.8536,0.8554,0.8546,0.8526,0.85,0.8537,0.8547,0.8551,0.8488,0.8487,0.8486,0.8485,0,0,0.8767,0.8726,0.8729,0.8718,0.869,0.8686,0.8687,0.8672,0.8669,0.8654,0.8653,0.8642,0.8623,0.8613,0.8592,0.8596,0.8625,0.8575,0.8574,0.8584,0.8643,0.8657,0.8663,0.861,0.861,0.8611,0.8644,0,0.8804,0.8803,0.8774,0.8781,0.8776,0.8741,0.8741,0.8724,0.8706,0.8699,0.8678,0.8671,0.8647,0.864,0.8643,0.8621,0.8636,0.8618,0.8608,0.8608,0.8614,0.8668,0.8684,0.8716,0.8648,0.8649,0.8649,0,0.8847,0.8834,0.884,0.8811,0.8808,0.8809,0.8793,0.8787,0.8766,0.8753,0.8741,0.8717,0.8715,0.8691,0.8687,0.8676,0.867,0.8659,0.8659,0.8657,0.863,0.8666,0.8726,0.8731,0.8655,0.8655,0.8654,0,0.8899,0.8883,0.8884,0.8876,0.8842,0.8844,0.883,0.8808,0.8801,0.8787,0.8782,0.8768,0.876,0.875,0.8722,0.8707,0.8721,0.8695,0.8709,0.871,0.8713,0.8713,0.8772,0.8711,0.8711,0.8711,0.8711,0,0.8944,0.8948,0.8907,0.8907,0.8911,0.8879,0.8884,0.8867,0.8848,0.8844,0.8813,0.881,0.8774,0.8767,0.8745,0.8745,0.8742,0.8731,0.8725,0.8733,0.8734,0.8728,0.8725,0.8712,0.8712,0.8712,0.8711,0,0.9002,0.8974,0.8973,0.8942,0.8934,0.8938,0.8911,0.891,0.889,0.8885,0.8882,0.885,0.884,0.8812,0.8795,0.878,0.8786,0.8775,0.8793,0.8789,0.8804,0.8803,0.886,0.8866,0.8803,0.8803,0.8804,0,0.9032,0.9035,0.9003,0.8998,0.8986,0.8979,0.8971,0.8939,0.8932,0.8909,0.8911,0.8898,0.8886,0.8872,0.8847,0.8834,0.8822,0.8843,0.882,0.8828,0.8821,0.8821,0.8821,0.8848,0.8849,0.885,0.885,0,0.9087,0.9073,0.9063,0.9048,0.904,0.9026,0.9011,0.9009,0.8973,0.8967,0.8956,0.8947,0.893,0.8917,0.89,0.8885,0.8862,0.8858,0.886,0.8868,0.8878,0.8872,0.8806,0.8856,0.8856,0.8855,0.8855,0.8855,0.9131,0.9132,0.911,0.9099,0.9084,0.9071,0.9068,0.9047,0.9038,0.9021,0.9002,0.8994,0.8972,0.8946,0.8933,0.8926,0.8913,0.8917,0.8918,0.8919,0.8923,0.888,0.8923,0.8922,0.8922,0.8922,0.8922,0,0.9184,0.9168,0.9159,0.9139,0.913,0.9109,0.9091,0.9085,0.9078,0.906,0.9049,0.9036,0.9024,0.8998,0.8983,0.8982,0.8971,0.8979,0.8979,0.8976,0.8935,0.8934,0.8989,0.8989,0.8989,0.8989,0.8989,0.8989,0.9211,0.921,0.9194,0.9185,0.9169,0.916,0.9151,0.9138,0.9124,0.9111,0.9101,0.9084,0.9062,0.9046,0.9033,0.9026,0.9022,0.9034,0.9023,0.8985,0.8979,0.8973,0.8971,0.9033,0.9033,0.9064,0.9064,0.9064]},{"header":{"parameterUnit":"m.s-1","parameterCategory":1,"la1":30.2991,"la2":30.254,"lo1":-89.0895,"lo2":-89.0444,"dy":0.0017,"dx":0.0017,"nx":28,"ny":28,"refTime":"2023-10-14T09:00:00:Z","depth":0,"parameterNumber":3,"parameterNumberName":"V-component_of_WINDS"},"data":[0,0,0,0,0,0,0,0,0,0,0,0,0,0,0,0,0,0,0,0,0,0,0,0,0,0,0,0,0,0,0,0,0,0,0,0,0,0,0,0,0,0,0,0,0,0,0,0,0,0,0,0,0,0,0,0,0,0,-0.5256,-0.5257,0,-0.533,-0.5331,-0.5332,-0.5364,-0.5364,-0.5364,-0.5364,-0.5441,-0.5443,-0.5445,0,0,0,0,0,0,0,0,0,0,0,0,0,-0.5146,-0.5147,-0.5256,-0.5257,-0.5258,-0.533,-0.5331,-0.5332,-0.5364,-0.5364,-0.5364,-0.5364,-0.544,-0.5442,-0.5445,0,0,0,0,0,0,0,0,0,0,0,0,0,-0.5204,-0.5148,-0.5256,-0.5283,-0.5286,-0.533,-0.5331,-0.5332,-0.5364,-0.5364,-0.5364,-0.5363,-0.5439,-0.5442,-0.5445,-0.5469,0,0,-0.5455,-0.5457,0,0,0,0,0,0,0,0,-0.5201,-0.5208,-0.5278,-0.5281,-0.5284,-0.5338,-0.532,-0.5378,-0.5364,-0.5334,-0.5364,-0.5363,-0.5407,-0.5412,-0.5427,-0.5473,-0.5476,-0.5456,-0.5458,-0.5459,-0.546,0,0,0,0,0,0,0,-0.5196,-0.5205,-0.5286,-0.5279,-0.5283,-0.5292,-0.53,-0.5331,-0.5371,-0.5337,-0.5339,-0.5348,-0.5408,-0.5424,-0.5429,-0.5477,-0.5455,-0.5458,-0.546,-0.5462,-0.5548,-0.5548,0,0,0,0,0,0,-0.5188,-0.5201,-0.5283,-0.5288,-0.5241,-0.5294,-0.5303,-0.5321,-0.537,-0.5378,-0.5348,-0.5349,-0.5418,-0.5425,-0.5432,-0.5464,-0.5459,-0.5462,-0.5464,-0.5548,-0.5548,-0.5548,0,0,0,0,0,0,-0.5185,-0.5195,-0.528,-0.5245,-0.5257,-0.5296,-0.5316,-0.5322,-0.5338,-0.5378,-0.5386,-0.5356,-0.5418,-0.5427,-0.546,-0.5467,-0.5463,-0.5466,-0.5547,-0.5548,-0.5548,-0.5527,0,0,0,0,0,0,-0.5182,-0.5194,-0.5202,-0.5245,-0.5259,-0.5306,-0.5316,-0.5324,-0.5343,-0.5345,-0.5388,-0.5395,-0.5419,-0.5455,-0.5463,-0.5471,-0.5469,-0.5547,-0.5547,-0.5548,-0.5527,-0.5527,-0.5526,0,0,0,0,0,-0.5178,-0.5193,-0.5202,-0.5212,-0.527,-0.5306,-0.5314,-0.5341,-0.5343,-0.5353,-0.5379,-0.5394,-0.5465,-0.5458,-0.5467,-0.5476,-0.5546,-0.5547,-0.5548,-0.5527,-0.5527,-0.5526,0,0,0,0,0,0,-0.515,-0.5199,-0.521,-0.524,-0.5269,-0.5312,-0.5324,-0.5339,-0.5368,-0.5369,-0.5401,-0.5411,-0.5441,-0.5462,-0.5454,-0.5503,-0.5507,-0.551,-0.5488,-0.5488,-0.5487,-0.5481,-0.5472,0,0,0,0,0,-0.5147,-0.5172,-0.5214,-0.5236,-0.525,-0.5285,-0.5302,-0.532,-0.5351,-0.5364,-0.5393,-0.5423,-0.5453,-0.5471,-0.5501,-0.5531,-0.5541,-0.5542,-0.5541,-0.5541,-0.5543,-0.5562,-0.5563,-0.5551,-0.5551,-0.5551,0,0,-0.5142,-0.5172,-0.5186,-0.5231,-0.5256,-0.5282,-0.5295,-0.5321,-0.5341,-0.5368,-0.5401,-0.5423,-0.546,-0.5491,-0.5507,-0.551,-0.5548,-0.5542,-0.5541,-0.5543,-0.5562,-0.5563,-0.5564,-0.5551,-0.5551,-0.5551,0,0,-0.5146,-0.517,-0.5192,-0.5217,-0.5254,-0.5277,-0.5282,-0.5324,-0.534,-0.5373,-0.5394,-0.5419,-0.5468,-0.5494,-0.5513,-0.5528,-0.5543,-0.5537,-0.5534,-0.5552,-0.5553,-0.5554,-0.5561,-0.5563,-0.5539,-0.5539,-0.5539,0,-0.5134,-0.5173,-0.5201,-0.5227,-0.5247,-0.5273,-0.5296,-0.5319,-0.5364,-0.5377,-0.538,-0.5444,-0.547,-0.5509,-0.5513,-0.5527,-0.5535,-0.5532,-0.5551,-0.5552,-0.5554,-0.556,-0.5562,-0.5538,-0.5538,-0.5538,-0.5538,0,-0.5158,-0.5185,-0.5199,-0.5242,-0.5263,-0.5287,-0.532,-0.5339,-0.5356,-0.5379,-0.5414,-0.5446,-0.5483,-0.5494,-0.551,-0.5535,-0.5536,-0.5544,-0.5549,-0.5553,-0.556,-0.5563,-0.5537,-0.5537,-0.5537,-0.5537,0,0,-0.5145,-0.5204,-0.5209,-0.5229,-0.5273,-0.5295,-0.5321,-0.5357,-0.5373,-0.5404,-0.5427,-0.5469,-0.5478,-0.55,-0.552,-0.5535,-0.5547,-0.5542,-0.5544,-0.5543,-0.5578,-0.5572,-0.5574,-0.5557,-0.5558,-0.5558,-0.5575,0,-0.5155,-0.5203,-0.5229,-0.5266,-0.5292,-0.5318,-0.5341,-0.5371,-0.5393,-0.542,-0.5445,-0.5475,-0.5483,-0.5497,-0.5514,-0.5542,-0.5555,-0.5541,-0.558,-0.5581,-0.557,-0.5577,-0.5571,-0.5585,-0.5578,-0.5579,-0.5579,0,-0.5173,-0.5203,-0.5242,-0.5284,-0.5296,-0.5316,-0.5353,-0.5377,-0.5412,-0.5428,-0.5453,-0.5473,-0.5503,-0.5506,-0.5548,-0.5538,-0.5556,-0.5572,-0.5574,-0.5578,-0.558,-0.5583,-0.5591,-0.5593,-0.5583,-0.5583,-0.5582,0,-0.516,-0.5211,-0.5241,-0.5258,-0.5308,-0.5322,-0.5343,-0.5378,-0.5398,-0.543,-0.5444,-0.5479,-0.5498,-0.5525,-0.5555,-0.5554,-0.5595,-0.5599,-0.5609,-0.5609,-0.5617,-0.5616,-0.5628,-0.5628,-0.5628,-0.5627,-0.5627,0,-0.5169,-0.5192,-0.5237,-0.5255,-0.5283,-0.5314,-0.534,-0.5364,-0.5395,-0.542,-0.5444,-0.5467,-0.5504,-0.5532,-0.5555,-0.5588,-0.5596,-0.561,-0.5616,-0.5608,-0.5607,-0.562,-0.562,-0.5628,-0.5628,-0.5628,-0.5628,0,-0.5159,-0.519,-0.5225,-0.5269,-0.5281,-0.53,-0.5338,-0.5358,-0.5383,-0.5414,-0.5423,-0.5462,-0.5496,-0.5528,-0.5573,-0.5589,-0.5622,-0.563,-0.561,-0.5613,-0.5622,-0.5621,-0.5643,-0.5649,-0.5644,-0.5644,-0.5644,0,-0.5162,-0.5181,-0.5228,-0.5246,-0.5267,-0.5296,-0.5317,-0.5349,-0.537,-0.5413,-0.5428,-0.5464,-0.5494,-0.5548,-0.5581,-0.5616,-0.5625,-0.5631,-0.563,-0.5622,-0.5626,-0.5625,-0.5627,-0.563,-0.563,-0.563,-0.563,0,-0.5165,-0.518,-0.5209,-0.5245,-0.5269,-0.5299,-0.5329,-0.5343,-0.5381,-0.5404,-0.5439,-0.5462,-0.551,-0.5545,-0.5585,-0.5608,-0.5626,-0.5629,-0.5634,-0.5626,-0.5614,-0.5622,-0.5609,-0.5629,-0.5629,-0.5629,-0.5629,-0.5629,-0.5163,-0.5181,-0.5217,-0.525,-0.5276,-0.5304,-0.5325,-0.5353,-0.5383,-0.5423,-0.5441,-0.5477,-0.5513,-0.5568,-0.5591,-0.5621,-0.5625,-0.5631,-0.5632,-0.5633,-0.5632,-0.5609,-0.5628,-0.5628,-0.5628,-0.5628,-0.5628,0,-0.5168,-0.5193,-0.5222,-0.5264,-0.529,-0.5304,-0.5339,-0.536,-0.5391,-0.5423,-0.5453,-0.5494,-0.553,-0.5566,-0.5603,-0.562,-0.5629,-0.5629,-0.5628,-0.5634,-0.5626,-0.5619,-0.5621,-0.5621,-0.5621,-0.5621,-0.5621,-0.5621,-0.5173,-0.5205,-0.5225,-0.5271,-0.5296,-0.5331,-0.535,-0.5376,-0.5402,-0.5447,-0.5477,-0.55,-0.5534,-0.5575,-0.5609,-0.5619,-0.5632,-0.5629,-0.5641,-0.5634,-0.5634,-0.5634,-0.5628,-0.5632,-0.5632,-0.5647,-0.5647,-0.5647]}]]